DLH6EV EDDM-LICA

Flight info

Callsign DLH6EV
Flight time 1h 34m
Altitude 37000
Route VAVOR3E VAVOR Y106 MODSA DCT DETSA DCT ANC DCT SOR DCT POLIT M620 ARBUM
Aircraft A320/M-SDE2E3FGIJ1LORWXYZ/HB1

Departure

Time 2026-05-06 07:47
Airport Munich Airport (EDDM)

Arrival

Time 2026-05-06 09:22
Airport Lamezia Terme Sant'Eufemia International Airport (LICA)
Time Latitude Longitude Altitude Speed Heading
2026-05-06 07:06 48.35292 11.81027 1482 ft 0 kts 354°
2026-05-06 07:38 48.35268 11.81031 1482 ft 4 kts 353°
2026-05-06 07:39 48.35247 11.81035 1480 ft 4 kts 337°
2026-05-06 07:39 48.35236 11.81057 1471 ft 4 kts 266°
2026-05-06 07:39 48.35238 11.81090 1478 ft 1 kts 263°
2026-05-06 07:42 48.35235 11.81047 1471 ft 7 kts 263°
2026-05-06 07:42 48.35225 11.80915 1483 ft 16 kts 263°
2026-05-06 07:42 48.35211 11.80740 1481 ft 18 kts 263°
2026-05-06 07:42 48.35196 11.80549 1476 ft 19 kts 264°
2026-05-06 07:43 48.35180 11.80342 1485 ft 21 kts 263°
2026-05-06 07:43 48.35163 11.80120 1483 ft 22 kts 263°
2026-05-06 07:43 48.35145 11.79886 1485 ft 20 kts 263°
2026-05-06 07:43 48.35131 11.79704 1485 ft 14 kts 261°
2026-05-06 07:44 48.35061 11.79657 1483 ft 12 kts 173°
2026-05-06 07:44 48.34979 11.79672 1473 ft 12 kts 173°
2026-05-06 07:44 48.34901 11.79686 1483 ft 11 kts 173°
2026-05-06 07:44 48.34855 11.79694 1481 ft 10 kts 173°
2026-05-06 07:45 48.34794 11.79705 1485 ft 8 kts 173°
2026-05-06 07:45 48.34744 11.79713 1483 ft 7 kts 173°
2026-05-06 07:45 48.34698 11.79695 1482 ft 10 kts 222°
2026-05-06 07:45 48.34643 11.79580 1481 ft 15 kts 234°
2026-05-06 07:46 48.34580 11.79453 1479 ft 16 kts 232°
2026-05-06 07:46 48.34511 11.79316 1471 ft 17 kts 233°
2026-05-06 07:46 48.34438 11.79167 1480 ft 19 kts 233°
2026-05-06 07:46 48.34371 11.78994 1479 ft 20 kts 253°
2026-05-06 07:47 48.34348 11.78737 1477 ft 41 kts 263°
2026-05-06 07:47 48.34284 11.77909 1486 ft 115 kts 263°
2026-05-06 07:47 48.34166 11.76408 1506 ft 170 kts 263°
2026-05-06 07:47 48.34026 11.74656 2276 ft 166 kts 263°
2026-05-06 07:48 48.33893 11.72916 2996 ft 173 kts 261°
2026-05-06 07:48 48.33309 11.71254 3329 ft 194 kts 218°
2026-05-06 07:48 48.32035 11.70578 3758 ft 208 kts 184°
2026-05-06 07:48 48.30497 11.70525 4251 ft 225 kts 179°
2026-05-06 07:49 48.28926 11.70682 5088 ft 227 kts 165°
2026-05-06 07:49 48.27522 11.71724 5998 ft 227 kts 144°
2026-05-06 07:49 48.26225 11.73129 6720 ft 238 kts 146°
2026-05-06 07:49 48.24805 11.74634 7135 ft 261 kts 146°
2026-05-06 07:50 48.23312 11.76208 7842 ft 270 kts 146°
2026-05-06 07:50 48.21757 11.77832 8709 ft 274 kts 147°
2026-05-06 07:50 48.20175 11.79464 9580 ft 279 kts 147°
2026-05-06 07:50 48.18552 11.81138 10190 ft 293 kts 144°
2026-05-06 07:51 48.17051 11.83389 10459 ft 319 kts 131°
2026-05-06 07:51 48.15592 11.86057 10717 ft 341 kts 131°
2026-05-06 07:51 48.14068 11.88843 11303 ft 350 kts 131°
2026-05-06 07:51 48.12514 11.91681 12022 ft 354 kts 132°
2026-05-06 07:52 48.10941 11.94542 12773 ft 358 kts 133°
2026-05-06 07:52 48.09347 11.97432 13512 ft 362 kts 133°
2026-05-06 07:52 48.07712 12.00319 14152 ft 365 kts 137°
2026-05-06 07:52 48.05808 12.02826 14737 ft 366 kts 148°
2026-05-06 07:53 48.03696 12.04982 15350 ft 370 kts 149°
2026-05-06 07:53 48.01554 12.07154 15937 ft 374 kts 149°
2026-05-06 07:53 47.99391 12.09347 16567 ft 378 kts 149°
2026-05-06 07:53 47.97211 12.11563 17185 ft 381 kts 150°
2026-05-06 07:54 47.94986 12.13747 17782 ft 383 kts 154°
2026-05-06 07:54 47.92574 12.15397 18327 ft 382 kts 165°
2026-05-06 07:54 47.90007 12.16359 18847 ft 380 kts 174°
2026-05-06 07:54 47.87398 12.17033 19389 ft 382 kts 174°
2026-05-06 07:55 47.84774 12.17725 19954 ft 384 kts 174°
2026-05-06 07:55 47.82140 12.18432 20504 ft 386 kts 174°
2026-05-06 07:55 47.79494 12.19146 21045 ft 387 kts 174°
2026-05-06 07:55 47.76836 12.19858 21592 ft 388 kts 174°
2026-05-06 07:56 47.74176 12.20567 22143 ft 390 kts 174°
2026-05-06 07:56 47.71500 12.21279 22663 ft 391 kts 174°
2026-05-06 07:56 47.68815 12.21994 23162 ft 393 kts 174°
2026-05-06 07:56 47.66115 12.22711 23612 ft 395 kts 175°
2026-05-06 07:57 47.63396 12.23276 24016 ft 393 kts 181°
2026-05-06 07:57 47.60663 12.23439 24423 ft 394 kts 182°
2026-05-06 07:57 47.57916 12.23595 24844 ft 395 kts 182°
2026-05-06 07:57 47.55167 12.23754 25250 ft 396 kts 182°
2026-05-06 07:58 47.52404 12.23913 25644 ft 399 kts 182°
2026-05-06 07:58 47.49630 12.24071 26027 ft 400 kts 182°
2026-05-06 07:58 47.46840 12.24232 26415 ft 402 kts 182°
2026-05-06 07:58 47.44034 12.24397 26786 ft 404 kts 182°
2026-05-06 07:59 47.41221 12.24565 27125 ft 406 kts 182°
2026-05-06 07:59 47.38391 12.24735 27497 ft 408 kts 182°
2026-05-06 07:59 47.35553 12.24902 27839 ft 409 kts 182°
2026-05-06 07:59 47.32699 12.25068 28157 ft 412 kts 182°
2026-05-06 08:00 47.29819 12.25237 28497 ft 415 kts 182°
2026-05-06 08:00 47.26930 12.25405 28802 ft 417 kts 182°
2026-05-06 08:00 47.24027 12.25574 29112 ft 419 kts 182°
2026-05-06 08:00 47.21108 12.25746 29520 ft 419 kts 182°
2026-05-06 08:01 47.18204 12.25915 30000 ft 417 kts 182°
2026-05-06 08:01 47.15307 12.26083 30354 ft 416 kts 182°
2026-05-06 08:01 47.12421 12.26251 30604 ft 416 kts 182°
2026-05-06 08:01 47.09530 12.26420 30844 ft 416 kts 182°
2026-05-06 08:02 47.06642 12.26591 31242 ft 415 kts 182°
2026-05-06 08:02 47.03762 12.26763 31600 ft 413 kts 182°
2026-05-06 08:02 47.00891 12.26933 31940 ft 413 kts 183°
2026-05-06 08:02 46.98025 12.27100 32320 ft 412 kts 183°
2026-05-06 08:03 46.95170 12.27267 32716 ft 410 kts 182°
2026-05-06 08:03 46.92322 12.27432 33120 ft 409 kts 184°
2026-05-06 08:03 46.89482 12.27591 33502 ft 408 kts 184°
2026-05-06 08:03 46.86649 12.27746 33871 ft 407 kts 184°
2026-05-06 08:04 46.83854 12.27902 34174 ft 407 kts 184°
2026-05-06 08:04 46.81018 12.28113 34470 ft 411 kts 180°
2026-05-06 08:04 46.78187 12.28889 34735 ft 418 kts 172°
2026-05-06 08:04 46.75375 12.29999 34965 ft 419 kts 172°
2026-05-06 08:05 46.72561 12.31111 35233 ft 419 kts 172°
2026-05-06 08:05 46.69746 12.32220 35482 ft 419 kts 172°
2026-05-06 08:05 46.66930 12.33327 35703 ft 419 kts 172°
2026-05-06 08:05 46.64112 12.34433 35832 ft 419 kts 172°
2026-05-06 08:06 46.61292 12.35534 35988 ft 421 kts 172°
2026-05-06 08:06 46.58461 12.36632 36223 ft 421 kts 172°
2026-05-06 08:06 46.55626 12.37731 36453 ft 422 kts 171°
2026-05-06 08:06 46.52791 12.38829 36661 ft 422 kts 171°
2026-05-06 08:07 46.49946 12.39929 36868 ft 423 kts 171°
2026-05-06 08:07 46.47097 12.41033 36946 ft 425 kts 171°
2026-05-06 08:07 46.41381 12.43252 36945 ft 426 kts 171°
2026-05-06 08:08 46.35664 12.45465 36946 ft 425 kts 171°
2026-05-06 08:08 46.29958 12.47663 36947 ft 424 kts 172°
2026-05-06 08:09 46.24253 12.49847 36943 ft 425 kts 172°
2026-05-06 08:09 46.18536 12.52042 36944 ft 425 kts 172°
2026-05-06 08:10 46.12831 12.54235 36943 ft 424 kts 172°
2026-05-06 08:10 46.07120 12.56418 36949 ft 425 kts 172°
2026-05-06 08:11 46.01410 12.58594 36949 ft 424 kts 172°
2026-05-06 08:11 45.95703 12.60760 36946 ft 424 kts 172°
2026-05-06 08:12 45.89997 12.62921 36942 ft 424 kts 172°
2026-05-06 08:12 45.84295 12.65080 36925 ft 423 kts 172°
2026-05-06 08:13 45.78602 12.67234 36902 ft 423 kts 172°
2026-05-06 08:13 45.72909 12.69388 36892 ft 424 kts 172°
2026-05-06 08:14 45.67202 12.71545 36906 ft 425 kts 173°
2026-05-06 08:14 45.61473 12.73693 36921 ft 426 kts 172°
2026-05-06 08:15 45.55786 12.75824 36932 ft 425 kts 173°
2026-05-06 08:15 45.50058 12.77963 36942 ft 426 kts 173°
2026-05-06 08:16 45.44357 12.80113 36880 ft 423 kts 173°
2026-05-06 08:16 45.38668 12.82234 36891 ft 423 kts 173°
2026-05-06 08:17 45.32968 12.84335 36898 ft 424 kts 173°
2026-05-06 08:17 45.27254 12.86446 36884 ft 425 kts 173°
2026-05-06 08:18 45.21516 12.88568 36889 ft 427 kts 173°
2026-05-06 08:18 45.15771 12.90704 36900 ft 427 kts 173°
2026-05-06 08:19 45.10008 12.92829 36914 ft 428 kts 173°
2026-05-06 08:19 45.04243 12.94942 36922 ft 428 kts 173°
2026-05-06 08:20 44.98516 12.97045 36919 ft 428 kts 172°
2026-05-06 08:20 44.92755 12.99161 36932 ft 428 kts 172°
2026-05-06 08:21 44.86992 13.01271 36934 ft 428 kts 172°
2026-05-06 08:21 44.81230 13.03372 36913 ft 428 kts 173°
2026-05-06 08:22 44.75454 13.05470 36916 ft 429 kts 172°
2026-05-06 08:22 44.69664 13.07578 36917 ft 430 kts 173°
2026-05-06 08:23 44.63868 13.09674 36931 ft 430 kts 173°
2026-05-06 08:23 44.58066 13.11768 36924 ft 431 kts 172°
2026-05-06 08:24 44.52256 13.13865 36931 ft 431 kts 172°
2026-05-06 08:24 44.46446 13.15974 36936 ft 431 kts 172°
2026-05-06 08:25 44.40635 13.18073 36934 ft 431 kts 172°
2026-05-06 08:25 44.34823 13.20158 36930 ft 431 kts 172°
2026-05-06 08:26 44.29002 13.22232 36930 ft 432 kts 172°
2026-05-06 08:26 44.23176 13.24308 36946 ft 432 kts 172°
2026-05-06 08:27 44.17349 13.26386 36929 ft 432 kts 172°
2026-05-06 08:27 44.11518 13.28471 36939 ft 432 kts 172°
2026-05-06 08:28 44.05689 13.30547 36946 ft 432 kts 172°
2026-05-06 08:28 43.99856 13.32602 36952 ft 432 kts 172°
2026-05-06 08:29 43.94026 13.34663 36953 ft 432 kts 172°
2026-05-06 08:29 43.88195 13.36734 36965 ft 432 kts 172°
2026-05-06 08:30 43.82369 13.38795 36958 ft 432 kts 172°
2026-05-06 08:30 43.76543 13.40832 36974 ft 432 kts 172°
2026-05-06 08:31 43.70724 13.42864 36982 ft 431 kts 172°
2026-05-06 08:31 43.65889 13.44561 36984 ft 431 kts 172°
2026-05-06 08:32 43.60081 13.46605 36965 ft 431 kts 172°
2026-05-06 08:32 43.54263 13.48543 36957 ft 429 kts 173°
2026-05-06 08:33 43.48430 13.50251 36947 ft 428 kts 174°
2026-05-06 08:33 43.42603 13.51931 36957 ft 428 kts 173°
2026-05-06 08:34 43.33876 13.54532 36959 ft 427 kts 173°
2026-05-06 08:35 43.28069 13.56282 36968 ft 427 kts 173°
2026-05-06 08:35 43.22263 13.58024 36970 ft 427 kts 173°
2026-05-06 08:36 43.16457 13.59755 36960 ft 427 kts 173°
2026-05-06 08:36 43.10651 13.61478 36962 ft 427 kts 173°
2026-05-06 08:37 43.04884 13.63198 36965 ft 427 kts 173°
2026-05-06 08:37 42.99076 13.64912 36949 ft 427 kts 173°
2026-05-06 08:38 42.93267 13.66619 36953 ft 427 kts 173°
2026-05-06 08:38 42.87458 13.68346 36961 ft 427 kts 173°
2026-05-06 08:39 42.81642 13.70065 36963 ft 427 kts 173°
2026-05-06 08:39 42.75830 13.71769 36954 ft 427 kts 173°
2026-05-06 08:40 42.70014 13.73472 36964 ft 428 kts 173°
2026-05-06 08:40 42.64197 13.75179 36969 ft 428 kts 173°
2026-05-06 08:41 42.58380 13.76889 36963 ft 428 kts 172°
2026-05-06 08:41 42.52561 13.78593 36961 ft 427 kts 173°
2026-05-06 08:42 42.46745 13.80276 36969 ft 427 kts 173°
2026-05-06 08:42 42.40929 13.81955 36971 ft 427 kts 173°
2026-05-06 08:43 42.35112 13.83642 36971 ft 427 kts 172°
2026-05-06 08:43 42.29296 13.85331 36983 ft 427 kts 172°
2026-05-06 08:44 42.23482 13.87010 36974 ft 427 kts 172°
2026-05-06 08:44 42.17662 13.88693 36985 ft 428 kts 172°
2026-05-06 08:45 42.11834 13.90362 36988 ft 428 kts 172°
2026-05-06 08:45 42.06008 13.92033 36992 ft 428 kts 172°
2026-05-06 08:46 42.00227 13.93703 37003 ft 428 kts 172°
2026-05-06 08:46 41.94411 13.95373 37005 ft 428 kts 172°
2026-05-06 08:47 41.88589 13.97039 37013 ft 428 kts 172°
2026-05-06 08:47 41.82767 13.98696 37020 ft 428 kts 172°
2026-05-06 08:48 41.76945 14.00349 37028 ft 428 kts 172°
2026-05-06 08:48 41.71126 14.02008 37026 ft 428 kts 172°
2026-05-06 08:49 41.65305 14.03666 37030 ft 428 kts 172°
2026-05-06 08:49 41.59482 14.05318 37041 ft 428 kts 172°
2026-05-06 08:50 41.53656 14.06956 37026 ft 428 kts 172°
2026-05-06 08:50 41.47827 14.08593 37039 ft 428 kts 172°
2026-05-06 08:51 41.41998 14.10241 37043 ft 428 kts 172°
2026-05-06 08:51 41.36168 14.11884 37048 ft 428 kts 172°
2026-05-06 08:52 41.30335 14.13519 37031 ft 428 kts 172°
2026-05-06 08:52 41.24497 14.15154 37037 ft 429 kts 172°
2026-05-06 08:53 41.18653 14.16791 37049 ft 429 kts 172°
2026-05-06 08:53 41.12806 14.18431 37047 ft 429 kts 172°
2026-05-06 08:54 41.06982 14.20051 37030 ft 430 kts 172°
2026-05-06 08:54 41.01141 14.21667 37033 ft 430 kts 172°
2026-05-06 08:55 40.95278 14.23289 37012 ft 431 kts 172°
2026-05-06 08:55 40.89433 14.24905 37018 ft 431 kts 172°
2026-05-06 08:56 40.83563 14.26539 37003 ft 431 kts 172°
2026-05-06 08:56 40.77690 14.28169 37027 ft 431 kts 172°
2026-05-06 08:57 40.71809 14.29785 37043 ft 432 kts 172°
2026-05-06 08:57 40.65920 14.31395 37039 ft 432 kts 172°
2026-05-06 08:58 40.60085 14.33319 37040 ft 437 kts 162°
2026-05-06 08:58 40.54828 14.37443 37042 ft 447 kts 143°
2026-05-06 08:59 40.50139 14.42847 37038 ft 448 kts 143°
2026-05-06 08:59 40.45440 14.48231 37037 ft 448 kts 143°
2026-05-06 09:00 40.40740 14.53618 37034 ft 449 kts 143°
2026-05-06 09:00 40.36033 14.59007 37034 ft 449 kts 143°
2026-05-06 09:01 40.31327 14.64390 37044 ft 449 kts 143°
2026-05-06 09:01 40.26609 14.69771 37050 ft 450 kts 143°
2026-05-06 09:01 40.24245 14.72459 36888 ft 451 kts 143°
2026-05-06 09:02 40.21874 14.75148 36265 ft 451 kts 143°
2026-05-06 09:02 40.19535 14.77802 35634 ft 451 kts 143°
2026-05-06 09:02 40.17128 14.80534 34986 ft 453 kts 143°
2026-05-06 09:02 40.14778 14.83199 34383 ft 455 kts 143°
2026-05-06 09:03 40.12382 14.85912 33743 ft 457 kts 143°
2026-05-06 09:03 40.09978 14.88633 33073 ft 458 kts 143°
2026-05-06 09:03 40.07564 14.91367 32412 ft 460 kts 143°
2026-05-06 09:03 40.05142 14.94107 31767 ft 461 kts 143°
2026-05-06 09:04 40.02714 14.96854 31132 ft 463 kts 143°
2026-05-06 09:04 40.00274 14.99617 30519 ft 466 kts 143°
2026-05-06 09:04 39.97817 15.02394 29734 ft 468 kts 143°
2026-05-06 09:04 39.95352 15.05176 28744 ft 470 kts 143°
2026-05-06 09:05 39.92872 15.07973 27733 ft 472 kts 143°
2026-05-06 09:05 39.90392 15.10768 26742 ft 471 kts 142°
2026-05-06 09:05 39.87915 15.13555 25797 ft 470 kts 142°
2026-05-06 09:05 39.85445 15.16326 24886 ft 468 kts 142°
2026-05-06 09:06 39.82989 15.19081 24004 ft 465 kts 142°
2026-05-06 09:06 39.80543 15.21824 23050 ft 463 kts 142°
2026-05-06 09:06 39.78107 15.24544 22045 ft 461 kts 144°
2026-05-06 09:06 39.75559 15.27049 21136 ft 457 kts 147°
2026-05-06 09:07 39.72993 15.29450 20379 ft 452 kts 148°
2026-05-06 09:07 39.70438 15.31795 19654 ft 448 kts 148°
2026-05-06 09:07 39.67908 15.34124 18945 ft 444 kts 148°
2026-05-06 09:07 39.65414 15.36459 18265 ft 440 kts 147°
2026-05-06 09:08 39.62958 15.38786 17595 ft 434 kts 147°
2026-05-06 09:08 39.60543 15.41094 16949 ft 428 kts 147°
2026-05-06 09:08 39.58165 15.43373 16318 ft 423 kts 147°
2026-05-06 09:08 39.55812 15.45622 15699 ft 418 kts 147°
2026-05-06 09:09 39.53481 15.47837 15097 ft 413 kts 147°
2026-05-06 09:09 39.51175 15.50019 14501 ft 408 kts 147°
2026-05-06 09:09 39.48897 15.52169 13923 ft 404 kts 147°
2026-05-06 09:09 39.46639 15.54295 13266 ft 399 kts 147°
2026-05-06 09:10 39.44404 15.56398 12621 ft 395 kts 147°
2026-05-06 09:10 39.42203 15.58467 12157 ft 387 kts 147°
2026-05-06 09:10 39.40075 15.60470 11990 ft 370 kts 147°
2026-05-06 09:10 39.38043 15.62387 11863 ft 354 kts 147°
2026-05-06 09:11 39.36117 15.64204 11729 ft 329 kts 147°
2026-05-06 09:11 39.34320 15.65899 11616 ft 312 kts 147°
2026-05-06 09:11 39.32597 15.67518 11469 ft 302 kts 148°
2026-05-06 09:11 39.30909 15.69098 11191 ft 298 kts 148°
2026-05-06 09:12 39.29241 15.70658 10874 ft 295 kts 148°
2026-05-06 09:12 39.27586 15.72206 10545 ft 293 kts 148°
2026-05-06 09:12 39.25964 15.73722 10235 ft 290 kts 148°
2026-05-06 09:12 39.24336 15.75245 9913 ft 288 kts 148°
2026-05-06 09:13 39.22720 15.76756 9553 ft 286 kts 147°
2026-05-06 09:13 39.21114 15.78259 9169 ft 284 kts 147°
2026-05-06 09:13 39.19516 15.79751 8793 ft 283 kts 147°
2026-05-06 09:13 39.17926 15.81238 8402 ft 282 kts 147°
2026-05-06 09:14 39.16344 15.82718 8004 ft 280 kts 147°
2026-05-06 09:14 39.14770 15.84190 7618 ft 279 kts 147°
2026-05-06 09:14 39.13206 15.85651 7232 ft 277 kts 146°
2026-05-06 09:14 39.11647 15.87104 6876 ft 275 kts 146°
2026-05-06 09:15 39.10112 15.88535 6576 ft 270 kts 146°
2026-05-06 09:15 39.08607 15.89937 6277 ft 265 kts 146°
2026-05-06 09:15 39.07127 15.91313 5969 ft 260 kts 146°
2026-05-06 09:15 39.05673 15.92663 5682 ft 256 kts 146°
2026-05-06 09:16 39.04242 15.93990 5371 ft 251 kts 147°
2026-05-06 09:16 39.02728 15.95024 5107 ft 243 kts 161°
2026-05-06 09:16 39.01155 15.95774 4811 ft 240 kts 161°
2026-05-06 09:16 38.99593 15.96527 4486 ft 240 kts 161°
2026-05-06 09:17 38.98034 15.97283 4156 ft 239 kts 161°
2026-05-06 09:17 38.96486 15.98030 3824 ft 234 kts 161°
2026-05-06 09:17 38.94992 15.98754 3499 ft 226 kts 159°
2026-05-06 09:17 38.93748 15.99892 3288 ft 220 kts 128°
2026-05-06 09:18 38.93270 16.01018 3199 ft 216 kts 108°
2026-05-06 09:18 38.93017 16.02878 3098 ft 208 kts 99°
2026-05-06 09:18 38.92814 16.04700 2872 ft 207 kts 100°
2026-05-06 09:18 38.92608 16.06519 2603 ft 203 kts 100°
2026-05-06 09:19 38.92408 16.08289 2312 ft 197 kts 99°
2026-05-06 09:19 38.92211 16.10011 2028 ft 193 kts 99°
2026-05-06 09:19 38.92021 16.11684 1745 ft 184 kts 100°
2026-05-06 09:19 38.91838 16.13250 1479 ft 170 kts 101°
2026-05-06 09:20 38.91668 16.14675 1293 ft 153 kts 101°
2026-05-06 09:20 38.91514 16.15980 1102 ft 145 kts 100°
2026-05-06 09:20 38.91367 16.17237 921 ft 141 kts 101°
2026-05-06 09:20 38.91229 16.18492 739 ft 142 kts 99°
2026-05-06 09:21 38.91073 16.19737 584 ft 141 kts 101°
2026-05-06 09:21 38.90918 16.20980 397 ft 141 kts 101°
2026-05-06 09:21 38.90774 16.22214 191 ft 139 kts 100°
2026-05-06 09:21 38.90629 16.23444 41 ft 134 kts 101°
2026-05-06 09:22 38.90510 16.24483 32 ft 95 kts 98°
2026-05-06 09:22 38.90437 16.25107 35 ft 51 kts 99°
2026-05-06 09:22 38.90401 16.25423 33 ft 25 kts 99°
2026-05-06 09:22 38.90419 16.25559 32 ft 14 kts 32°
2026-05-06 09:23 38.90496 16.25535 34 ft 11 kts 323°
2026-05-06 09:23 38.90553 16.25481 35 ft 9 kts 323°
2026-05-06 09:23 38.90598 16.25415 35 ft 12 kts 306°
2026-05-06 09:23 38.90637 16.25303 33 ft 15 kts 285°
2026-05-06 09:24 38.90656 16.25157 34 ft 18 kts 279°
2026-05-06 09:24 38.90676 16.24987 33 ft 21 kts 279°
2026-05-06 09:24 38.90697 16.24794 32 ft 23 kts 279°
2026-05-06 09:24 38.90722 16.24628 32 ft 12 kts 298°
2026-05-06 09:25 38.90784 16.24565 32 ft 8 kts 325°
2026-05-06 09:25 38.90812 16.24517 32 ft 6 kts 320°
2026-05-06 09:25 38.90848 16.24515 32 ft 5 kts 12°
2026-05-06 09:25 38.90863 16.24521 32 ft 1 kts 24°
2026-05-06 09:26 38.90866 16.24525 32 ft 0 kts 43°
2026-05-06 09:26 38.90866 16.24526 32 ft 1 kts 38°
2026-05-06 09:26 38.90868 16.24528 32 ft 0 kts 41°
2026-05-06 09:26 38.90869 16.24528 32 ft 0 kts 41°